Location: Sternwarte Zollern-Alb
(48.2880°N, 8.6780°E)
Time: 03:45:38
(UTC+02:00)

ISS - Pass Details

Date: 01 May 2026
Orbit: 414 x 424 km, 51.6° (Epoch: 19 May)

Event Time Altitude Azimuth Distance (km) Brightness Sun altitude
Exits shadow 04:49:01 - 287° (WNW) 1,818 -0.8 -11.8°
Reaches altitude 10° 04:49:49 10° 290° (WNW) 1,498 -1.2 -11.7°
Maximum altitude 04:53:05 47° 6° (N) 563 -2.8 -11.3°
Drops below altitude 10° 04:56:22 10° 83° (E) 1,503 0.1 -10.9°
Sets 04:58:31 0° 89° (E) 2,369 1.0 -10.6°
